sat.trackr.live / text

‹ back to catalog

STARLINK-32044

NORAD 60092 · 2024-117B

PAYLOAD ACTIVE UNKNOWN

§ Identity

Operator
Country
US
Launch date
2024-06-23
Launch site
AFETR
Launch vehicle
Mass (kg)
RCS (m²)

Purposes: comms

External: N2YO · Heavens-Above · Gunter

§ Orbital elements

Epoch: 2026-05-25T03:03:17.373024Z

Period
94.11 min
Inclination
53.1610°
Eccentricity
0.0001256
Mean motion
15.30196864 rev/d
Perigee alt
474.4 km
Apogee alt
476.1 km
Semi-major
6,853.4 km
B*
6.1256e-5
RAAN
41.7787°
Arg perigee
80.2598°
Mean anomaly
279.8545°
Rev number
10,859

§ Raw data

STARLINK-320441 60092U 24117B   26145.12728441  .00001455  00000+0  61256-4 0  99972 60092  53.1610  41.7787 0001256  80.2598 279.8545 15.30196864108591

JSON: /api/v1/satellites/60092 · /tle

For live sub-satellite position, see the globe view (requires WebGL).

§ Visibility from observer

Set your observer location to see the next 7 days of passes ≥ 10°. The values pass through the URL so the page stays shareable.

No JS? Fill the form by hand. The geolocation button needs JavaScript.